Overview Statistics Trail Chart Weather Telemetry Raw packets
 

This is the latest recevied weather packets stored in our database for station/object KE5QKR. If no packets are shown the sender has not sent any weather packets the latest 10 day(s).

<< 76 77 78 79 80 81 82 >>
Time Temp. Humidity Pressure Rain* Wind** Luminosity Snow
1777425453 23.33° C 92% 1013.9 hPa 0 mm - 0 W/m² -
1777425150 23.33° C 91% 1014 hPa 0 mm - 0 W/m² -
1777424846 23.33° C 91% 1013.8 hPa 0 mm - 0 W/m² -
1777424541 23.33° C 90% 1013.7 hPa 0 mm - 0 W/m² -
1777424238 23.89° C 89% 1013.9 hPa 0 mm - 0 W/m² -
1777423934 23.89° C 89% 1013.9 hPa 0 mm - 0 W/m² -
1777423631 23.89° C 88% 1013.9 hPa 0 mm - 0 W/m² -
1777423326 24.44° C 87% 1013.9 hPa 0 mm - 1 W/m² -
1777423021 24.44° C 87% 1013.6 hPa 0 mm - 1 W/m² -
1777422717 24.44° C 85% 1013.8 hPa 0 mm - 2 W/m² -
1777422412 25° C 85% 1013.9 hPa 0 mm - 4 W/m² -
1777422107 25° C 84% 1013.7 hPa 0 mm - 7 W/m² -
1777421806 25° C 83% 1013.6 hPa 0 mm - 10 W/m² -
1777421502 25° C 83% 1013.6 hPa 0 mm - 14 W/m² -
1777421198 25.56° C 82% 1013.4 hPa 0 mm - 17 W/m² -
1777420895 25.56° C 82% 1013.5 hPa 0 mm - 20 W/m² -
1777420592 25.56° C 81% 1013.7 hPa 0 mm - 25 W/m² -
1777420288 25.56° C 81% 1013.9 hPa 0 mm - 29 W/m² -
1777419983 26.11° C 80% 1014 hPa 0 mm - 33 W/m² -
1777419680 26.11° C 80% 1013.9 hPa 0 mm - 34 W/m² -
1777419378 26.11° C 80% 1014 hPa 0 mm - 43 W/m² -
1777419078 26.11° C 79% 1013.9 hPa 0 mm - 47 W/m² -
1777418776 26.67° C 79% 1013.8 hPa 0 mm - 55 W/m² -
1777418474 26.67° C 79% 1013.7 hPa 0 mm - 62 W/m² -
1777418170 26.67° C 78% 1013.7 hPa 0 mm - 64 W/m² -

* Rain latest hour (hover to see other rain measurements)
** Current wind speed in m/s (hover to see current wind gust speed)